User: anonymous   Login
Location: Carri�res
(48.9069°N, 2.1792°E)
Time: 17:04:26
(UTC+00:00)
Language:

N. Korean satellite - Orbit

View from above orbital plane
View from above orbital plane
View from above satellite
View from above satellite

Ground track
Ground track

The orbit data is extracted from the following two-line orbital elements,

1 39026U 12072A   21129.24712823  .00001433  00000-0  50928-4 0  9995
2 39026  97.2437 123.0744 0036334 161.3063 198.9522 15.30037430467036
Epoch (UTC): 09 May 2021 05:55:51
Eccentricity: 0.0036334
inclination: 97.2437°
perigee height: 451 km
apogee height: 500 km
right ascension of ascending node: 123.0744°
argument of perigee: 161.3063°
revolutions per day: 15.30037430
mean anomaly at epoch: 198.9522°
orbit number at epoch: 46703

The dashed part of the orbit path shows where the satellite is in the earth's shadow,  

DLR